Regional Weather Roundup
Issued by NWS

Home | Current Version | Previous Version | Graphics & Text | Print | Product List | Glossary On
Versions: 1 2 3 4 5 6 7 8 9 10 11 12 13 14 15 16 17 18 19 20 21 22 23 24 25 26 27 28 29 30 31 32 33 34 35 36 37 38 39 40 41 42 43 44 45 46 47 48 49 50
000
ASUS43 KOAX 280902
RWRNE

WEATHER ROUNDUP FOR NEBRASKA
NATIONAL WEATHER SERVICE OMAHA NE
300 AM CST WED JAN 28 2015

NOTES: SATELLITE DATA IS BEING USED TO AUGMENT CLOUD COVER ABOVE
       12000 FEET.
       "FAIR" INDICATES FEW OR NO CLOUDS BELOW 12,000 FEET WITH NO
       SIGNIFICANT WEATHER AND/OR OBSTRUCTIONS TO VISIBILITY.

  * THESE STATIONS DO NOT REPORT WEATHER SUCH AS RAIN...SNOW OR FOG.

NEZ001>004-019>022-054>056-281000-
NEBRASKA PANHANDLE

CITY           SKY/WX    TMP DP  RH WIND       PRES   REMARKS
SCOTTSBLUFF      N/A    N/A N/A N/A MISG      29.94S
ALLIANCE       MOCLDY    36  27  69 SW7       29.92S WCI  30
CHADRON        MOCLDY    34  27  75 CALM      29.87S
SIDNEY         PTCLDY    43  27  53 NW14      29.96S
$$

NEZ057>060-069>072-079>082-281000-
SOUTHWEST NEBRASKA

CITY           SKY/WX    TMP DP  RH WIND       PRES   REMARKS
NORTH PLATTE   CLEAR     26  23  88 NW5       29.87S WCI  20
IMPERIAL       CLEAR     39  27  62 NW12      29.88R WCI  32
MCCOOK         CLEAR     31  26  82 W9        29.84F WCI  23
$$

NEZ005>010-023>029-035>040-094-281000-
NORTH CENTRAL NEBRASKA

CITY           SKY/WX    TMP DP  RH WIND       PRES   REMARKS
VALENTINE      PTCLDY    37  30  75 SW6       29.81F WCI  32
BROKEN BOW     PTCLDY    33  28  81 CALM      29.84F
ORD            CLEAR     26  23  88 S5        29.84F WCI  20
$$

NEZ041-046>049-061>064-073>077-083>087-281000-
SOUTH CENTRAL NEBRASKA

CITY           SKY/WX    TMP DP  RH WIND       PRES   REMARKS
GRAND ISLAND   CLEAR     32  27  81 CALM      29.86F
HASTINGS       PTCLDY    34  27  75 CALM      29.84F
KEARNEY *      PTCLDY    32  27  80 CALM      29.85F
$$

NEZ011>018-030>034-042>045-281000-
NORTHEAST NEBRASKA

CITY           SKY/WX    TMP DP  RH WIND       PRES   REMARKS
NORFOLK        MOCLDY    35  29  78 SE7       29.87F WCI  29
COLUMBUS *     PTCLDY    36  27  69 E3        29.91R
TEKAMAH        CLEAR     33  29  85 SE8       29.95S WCI  26
$$

NEZ050>053-065>068-078-088>093-281000-
SOUTHEAST NEBRASKA

CITY           SKY/WX    TMP DP  RH WIND       PRES   REMARKS
LINCOLN        MOCLDY    37  29  72 SE7       29.92F WCI  32
OMAHA EPPLEY   PTCLDY    37  30  75 SE12      29.95F WCI  29
FALLS CITY     PTCLDY    36  29  75 SE6       29.94F WCI  31
$$

NEZ044-045-051>053-067-281000-
OMAHA AREA

CITY           SKY/WX    TMP DP  RH WIND       PRES   REMARKS
OMAHA EPPLEY   PTCLDY    37  30  75 SE12      29.95F WCI  29
OFFUTT AFB     CLEAR     36  30  79 E10       29.94F WCI  28
$$


USA.gov is the U.S. government's official web portal to all federal, state and local government web resources and services.